Theta_e
341 344 344 340 340 340 340 341 340 340 341 341 341 340 341 344 344 344 343 343 342 341 341 343 343 344 343 343 342 343 344 343 342 340 340 340 341 340 337 336 336 336 337 338 338 336 336 338 338 335 332 330 331 332 332 332 332 332 333 334 334 334 333 332 331 331 330 332 332 333 333 334 335 335 335 336 335 335 334 333 333 334 334 335 335
341 344 345 343 342 341 341 343 343 342 343 343 344 343 343 344 343 344 344 343 344 345 344 343 345 346 345 343 343 343 344 343 343 342 341 340 339 341 339 337 336 335 335 337 339 338 337 336 337 335 331 330 332 332 332 332 332 332 333 334 335 334 333 332 332 330 329 330 330 331 331 332 333 333 334 334 334 334 333 332 332 333 334 334 334
343 346 347 347 345 344 344 344 344 343 342 343 344 345 345 343 342 343 343 343 344 344 343 343 346 347 346 345 343 343 343 343 344 344 344 343 341 340 340 338 337 335 335 336 338 339 338 336 336 335 333 331 331 332 332 332 332 332 333 334 335 335 333 332 332 331 331 331 331 331 331 331 332 332 332 333 333 333 332 332 332 332 333 333 333
340 345 348 348 345 345 345 344 343 341 340 341 342 344 345 344 343 342 341 341 341 341 342 342 345 347 347 346 345 343 342 342 344 345 345 345 342 339 339 339 337 336 335 335 337 338 339 338 336 336 334 332 331 331 331 332 331 331 332 333 334 335 334 333 333 333 333 333 333 332 332 332 332 332 332 332 332 332 332 332 332 332 332 332 332
338 342 344 345 345 345 346 346 343 341 340 340 341 344 345 344 343 343 341 339 338 339 340 341 344 346 346 347 346 343 341 342 343 344 344 345 344 341 340 340 339 338 336 335 336 337 338 340 339 338 336 334 333 332 331 331 331 332 332 332 333 334 334 333 333 333 333 334 333 334 333 333 333 332 333 333 333 333 333 333 332 332 331 331 331
337 339 339 341 343 344 345 346 343 341 341 341 342 343 343 343 342 342 342 342 340 339 340 340 342 345 346 346 347 345 343 344 344 343 343 344 345 343 341 342 341 340 339 336 336 336 338 340 341 341 339 336 334 334 333 332 332 332 332 332 332 333 332 332 332 332 332 333 333 333 334 334 334 333 333 332 332 332 333 333 332 331 331 331 332
340 341 341 341 342 343 344 344 342 341 341 342 343 341 339 340 340 340 341 343 343 342 342 342 342 342 344 344 345 346 345 345 345 344 343 343 344 343 341 341 342 342 341 340 338 338 337 339 341 341 341 340 336 334 334 334 333 333 333 332 332 332 332 331 330 330 331 331 331 331 332 333 333 333 333 332 332 331 331 332 331 331 331 331 332
347 347 347 345 343 344 345 343 341 341 340 339 339 337 337 337 338 338 339 341 342 341 340 341 342 343 343 342 341 343 345 346 346 346 346 345 345 344 343 341 340 342 341 341 342 341 339 339 339 340 341 342 340 337 334 334 335 334 334 334 333 332 332 331 331 330 330 330 330 331 331 332 332 332 332 332 331 330 330 330 330 330 330 330 331
347 348 348 347 343 341 343 341 337 336 336 334 333 334 335 336 336 336 336 336 338 338 337 337 341 342 342 342 341 340 343 346 347 347 346 346 346 346 346 345 341 340 340 341 343 344 342 339 338 339 339 340 341 341 337 334 334 335 335 335 334 333 332 332 331 330 331 331 331 331 332 332 332 332 331 331 331 330 330 329 329 328 328 329 329
344 345 345 344 342 339 339 339 339 337 333 331 332 332 332 333 332 331 329 328 330 333 334 335 336 340 342 342 341 341 342 344 346 348 347 346 346 346 347 347 345 342 340 341 343 345 345 341 338 338 339 339 341 343 341 337 334 334 335 335 335 334 333 332 332 332 332 332 332 332 333 333 333 333 332 332 331 331 330 329 328 327 328 328 329
346 346 344 342 342 339 337 338 339 339 335 333 333 332 330 330 329 327 325 324 324 325 330 333 334 336 339 341 341 341 341 341 343 346 348 347 346 347 347 347 346 343 340 340 341 344 345 343 340 339 339 340 340 342 343 340 336 334 334 335 335 335 335 334 333 333 334 334 334 334 335 335 335 335 334 333 333 332 332 332 331 330 329 329 329
342 344 344 343 342 341 339 337 337 337 336 335 333 331 329 327 326 324 322 322 322 322 326 330 334 336 337 339 340 341 340 340 341 343 347 348 347 347 347 347 346 345 344 341 340 341 344 343 339 339 342 343 341 341 343 342 338 336 335 334 335 335 336 336 335 335 335 336 336 336 337 338 337 336 336 335 334 333 333 333 333 334 333 333 332
336 337 338 339 339 339 339 338 337 336 334 333 332 329 327 324 323 322 321 322 324 327 331 333 337 339 338 338 339 341 340 340 341 341 346 348 348 347 347 346 346 346 346 344 340 338 341 343 341 340 342 343 342 340 341 342 341 338 336 335 335 335 336 337 336 337 338 338 338 339 339 340 339 337 337 336 336 336 336 336 335 335 335 335 335
333 333 334 335 334 335 335 335 335 334 332 331 329 326 324 323 323 322 323 327 330 332 335 336 337 337 336 337 340 342 341 341 341 342 346 348 347 348 346 344 345 345 346 345 343 339 340 343 344 343 342 341 342 342 340 341 341 340 338 336 336 335 335 336 336 338 339 339 339 340 341 341 341 340 339 338 337 338 338 338 338 337 336 336 336
332 333 333 334 334 335 334 334 334 332 330 329 327 326 325 324 326 330 331 336 337 335 333 333 333 334 336 339 342 344 343 342 340 340 346 348 347 348 347 345 345 344 344 345 344 343 342 343 345 345 343 341 342 343 341 340 340 340 340 338 337 336 335 336 337 338 339 339 340 341 342 342 341 341 340 338 337 338 338 338 338 338 337 337 336
332 331 332 332 333 335 333 333 334 333 331 330 329 328 327 328 331 335 338 340 340 337 334 330 330 332 334 338 341 343 343 342 341 341 344 346 346 347 347 345 345 345 344 344 344 345 345 344 344 342 340 339 340 341 341 341 338 338 339 339 338 337 336 337 338 340 340 340 341 341 341 340 339 338 338 337 337 337 337 338 338 338 338 337 336
331 331 332 332 330 332 332 332 334 334 333 332 333 332 331 333 335 336 338 338 338 336 334 331 330 330 330 334 340 343 343 341 342 343 343 344 345 346 346 344 345 345 344 342 342 344 345 345 344 340 335 335 338 340 341 341 339 337 337 338 338 336 336 336 337 340 342 342 341 341 340 338 338 337 336 335 335 336 337 337 338 338 338 338 337
331 332 332 332 331 333 332 332 333 334 334 333 335 336 336 338 339 339 339 337 336 335 332 330 329 330 329 330 335 340 343 343 343 342 342 345 346 346 345 344 345 345 344 340 338 342 344 345 344 341 337 335 337 339 340 340 339 337 336 337 336 335 335 335 335 338 341 342 342 340 338 337 336 336 336 335 335 334 334 335 336 336 337 337 337
330 331 331 330 331 332 332 332 332 334 335 335 336 338 340 341 341 340 339 337 336 335 334 331 331 332 332 332 332 335 341 343 343 342 343 345 345 344 344 344 344 346 346 341 338 341 343 344 344 342 341 338 336 337 340 341 340 337 337 336 335 335 334 333 333 334 338 341 342 341 339 336 335 335 335 335 335 335 334 334 334 334 335 336 336
330 330 330 330 330 331 332 332 332 334 336 335 338 341 341 340 338 336 336 335 335 334 335 334 334 333 333 334 334 333 336 338 339 341 343 342 340 340 343 345 344 344 346 345 343 343 343 344 343 341 342 342 339 337 339 341 340 338 337 335 334 335 334 332 331 331 333 336 338 339 338 337 334 333 334 335 336 336 336 334 333 333 334 335 336
331 332 332 332 331 330 331 331 330 333 335 334 335 339 339 338 337 335 333 332 333 333 334 334 335 336 336 336 336 334 334 333 333 336 341 342 340 340 342 344 342 341 344 347 347 346 345 345 342 338 340 344 344 342 340 341 341 339 337 334 334 334 334 334 333 331 330 331 333 334 335 334 333 332 334 336 337 337 337 336 335 334 334 335 336
331 332 331 332 332 330 330 330 330 332 335 335 333 335 337 335 334 333 332 332 332 333 334 333 333 334 334 334 336 337 337 336 335 334 336 338 339 340 341 343 344 342 341 341 344 346 346 346 344 340 340 342 345 345 344 342 340 340 339 335 333 334 334 335 334 333 331 330 330 331 332 332 332 333 335 337 339 339 338 338 336 335 335 335 336
331 331 331 330 330 331 330 331 330 330 333 334 332 331 332 331 331 330 330 331 332 333 333 332 332 333 334 333 334 337 339 340 339 335 334 335 337 339 339 341 344 345 342 338 339 341 343 345 346 346 345 344 345 346 346 344 341 339 338 335 333 333 333 333 334 333 332 331 330 330 331 332 333 334 336 337 339 339 339 339 338 337 336 336 337
330 332 331 328 327 329 329 328 329 329 329 330 329 329 329 330 330 330 329 330 331 332 332 332 332 333 333 332 333 334 336 337 336 335 335 335 336 337 338 340 344 346 344 340 340 340 339 343 346 346 347 347 347 346 346 346 343 338 334 334 334 334 333 334 334 333 332 331 331 331 331 332 333 334 335 336 337 339 340 339 339 338 338 339 339
329 329 329 328 326 326 325 325 325 325 325 326 326 327 327 328 330 330 330 331 330 330 331 332 333 333 332 331 332 333 334 333 334 335 335 333 334 336 336 340 343 345 345 344 344 342 341 343 346 346 347 348 347 347 346 346 345 341 336 335 334 335 334 334 334 335 335 333 333 333 332 332 333 334 335 336 337 338 339 340 339 339 339 340 340
328 327 327 327 326 324 323 323 323 323 323 323 323 323 323 324 327 329 329 329 329 330 330 331 331 332 333 333 332 332 332 332 333 334 333 332 334 334 335 338 340 341 343 344 344 344 343 344 343 345 347 346 346 347 347 346 346 344 340 336 334 335 334 333 333 334 336 337 335 333 333 334 334 335 336 337 337 338 338 340 340 340 340 341 341
326 326 327 327 326 324 322 322 323 323 323 324 324 324 324 324 325 327 327 327 328 330 331 331 331 331 332 333 334 333 331 332 333 333 331 331 332 334 336 338 338 339 341 343 344 343 342 342 341 344 347 346 344 344 344 343 343 343 340 338 336 336 335 336 335 335 337 338 336 335 334 334 336 337 338 339 339 339 339 339 340 341 341 342 342
324 326 327 327 327 326 325 324 324 322 322 323 325 327 327 326 327 327 327 326 326 328 329 330 329 329 329 331 335 334 332 332 333 331 331 331 331 332 334 336 337 339 340 342 343 342 342 341 341 343 347 347 345 341 340 340 339 341 341 339 338 337 337 338 337 336 337 337 337 335 335 336 337 338 338 338 338 338 338 339 340 340 341 341 341
325 325 326 327 327 327 326 325 325 323 322 324 325 326 326 326 327 327 326 327 326 325 326 327 328 328 328 329 331 331 330 332 332 331 331 332 330 330 332 333 336 338 339 341 341 341 340 339 340 342 345 347 346 341 339 339 340 341 342 340 339 338 338 338 338 338 338 338 337 336 336 338 338 338 337 337 337 337 337 338 339 340 340 341 340
326 325 326 326 325 325 325 325 325 323 322 323 323 325 327 326 326 327 327 328 327 326 326 327 328 329 328 328 328 328 329 330 333 332 330 330 330 329 331 333 335 337 338 339 339 339 339 338 338 341 343 345 347 345 342 339 339 341 342 342 340 339 338 339 339 338 338 339 338 338 338 338 337 336 336 337 337 338 338 339 339 340 340 339 339
326 325 325 325 324 324 324 325 324 323 323 323 325 326 325 324 325 326 326 327 326 326 326 327 327 328 329 328 329 330 330 330 331 332 332 331 331 331 332 333 334 336 337 337 338 337 337 338 338 339 341 344 347 348 345 341 340 341 342 342 341 340 340 341 340 338 338 338 338 337 337 336 336 336 336 337 337 339 340 340 339 339 338 338 337
326 324 323 323 324 324 325 325 325 324 323 324 325 325 324 325 325 325 325 325 326 326 326 327 327 328 329 329 329 330 331 331 331 332 332 332 332 332 332 333 335 337 336 336 337 336 335 335 337 338 341 343 345 346 344 341 339 340 340 340 340 340 341 342 341 337 337 338 338 337 336 336 336 336 337 338 339 340 340 339 338 338 338 339 339
324 323 323 323 324 325 325 325 324 324 324 324 324 324 326 326 324 325 327 328 327 327 326 327 327 328 329 330 329 329 330 330 331 332 333 332 333 333 332 332 334 338 337 335 336 336 334 334 335 337 338 341 345 345 343 341 338 337 339 340 340 339 341 342 340 338 339 340 339 338 338 339 339 339 340 340 340 340 339 338 339 340 341 341 342
323 322 322 323 324 325 325 325 325 325 325 324 323 324 325 325 325 329 330 328 326 327 326 326 325 326 327 328 330 330 331 331 330 331 332 334 333 333 332 331 333 337 338 336 334 335 334 334 336 338 336 337 342 342 341 341 340 338 339 341 341 340 340 340 339 341 343 343 342 340 340 340 340 340 340 339 339 338 338 339 340 342 342 342 341
323 322 323 323 324 324 325 326 326 326 326 324 323 323 324 325 327 330 329 326 326 327 326 325 324 324 325 326 329 330 331 332 331 330 332 334 333 332 332 333 334 336 338 337 335 335 336 337 337 338 335 335 339 339 338 341 341 339 340 341 342 342 341 339 340 343 344 344 342 339 338 338 338 338 337 337 337 338 339 339 339 339 339 338 338
323 324 324 323 323 324 326 326 327 328 328 327 324 323 325 327 327 327 327 326 326 326 325 324 324 325 325 326 327 329 331 332 332 332 333 333 333 333 333 332 333 335 338 338 336 335 337 338 337 336 334 335 338 338 340 343 342 341 341 342 342 343 341 338 339 342 343 344 343 340 337 336 336 336 337 337 338 338 338 338 338 337 337 337 338
326 326 326 325 324 325 327 327 327 327 328 327 325 324 325 326 325 326 327 326 325 326 325 323 324 326 326 326 326 327 329 332 332 333 333 332 332 333 334 332 332 334 337 337 335 335 336 336 336 336 335 336 339 339 340 342 342 342 342 342 342 343 341 338 338 339 340 343 345 343 339 337 336 336 337 338 339 339 339 338 338 338 338 337 338
327 328 328 327 327 327 328 327 327 328 328 327 325 324 324 325 325 326 326 325 326 326 323 321 323 326 326 326 326 326 328 330 332 333 333 332 332 332 333 334 333 333 336 337 335 335 336 335 335 336 335 336 339 338 336 336 338 340 341 340 341 344 344 342 340 338 339 341 343 344 342 338 336 336 337 338 339 340 339 338 338 338 338 338 338
327 327 328 328 328 328 328 328 328 328 327 327 325 324 324 325 326 326 324 324 326 324 321 321 324 325 326 326 326 326 327 329 331 333 334 333 332 331 332 334 334 333 335 337 336 334 335 335 335 336 336 337 339 338 336 335 335 336 339 340 341 344 345 345 343 341 341 340 338 341 343 340 337 336 337 338 340 339 338 338 339 339 337 337 337
326 326 327 328 328 328 329 330 329 327 328 330 328 325 325 325 326 325 323 324 325 322 321 324 324 324 324 325 325 325 326 328 330 333 334 333 334 334 332 334 334 332 333 336 336 334 334 334 335 336 335 338 340 338 337 339 337 335 338 340 340 342 343 343 341 340 340 340 337 338 341 341 341 340 338 338 339 339 339 339 340 341 339 337 336
325 326 327 328 328 328 329 330 330 330 331 332 329 325 325 326 326 324 321 323 324 323 323 325 324 322 322 324 325 325 326 327 329 332 333 333 334 334 333 333 334 333 333 334 334 334 333 334 335 336 336 337 339 339 339 341 338 335 337 339 338 339 341 343 342 341 340 340 340 340 340 342 342 341 339 338 338 339 339 340 341 341 340 337 336
326 326 327 328 329 329 329 330 331 331 332 330 326 325 326 327 326 323 319 321 323 323 324 324 324 322 322 323 324 325 325 326 328 331 332 332 332 332 331 332 334 334 334 333 332 333 334 335 335 336 336 336 337 339 339 339 336 334 337 339 337 336 339 341 342 343 342 340 341 341 341 342 341 341 341 340 339 339 340 341 341 340 339 337 336
327 327 328 328 329 329 329 330 331 331 331 328 324 324 327 328 326 322 318 320 322 323 324 324 324 323 322 322 323 323 323 325 326 328 330 331 332 332 331 332 334 335 334 333 333 333 334 334 334 334 335 335 335 337 338 337 335 333 335 337 335 333 337 341 341 340 341 342 341 340 340 341 342 343 344 342 339 339 339 339 339 339 338 337 335
326 327 327 328 329 329 329 330 330 330 331 327 322 324 327 327 325 321 317 319 322 323 323 323 323 322 322 322 322 322 322 323 324 326 327 328 330 331 332 333 333 334 334 334 334 334 333 333 334 334 335 335 335 336 337 336 336 334 335 338 338 334 336 340 340 339 341 342 341 339 340 343 344 344 343 342 340 339 339 338 338 338 338 336 335
326 326 327 327 328 329 329 329 329 329 331 327 323 323 326 326 323 321 319 318 320 322 323 323 321 319 321 322 322 322 320 320 322 323 325 327 328 328 330 332 332 333 333 333 333 333 333 333 333 333 334 334 335 336 336 335 336 337 338 340 342 337 335 336 337 340 343 342 342 342 342 346 349 345 342 341 340 339 339 338 338 338 337 335 335
325 326 326 326 327 327 327 328 328 328 329 328 324 321 323 324 323 321 320 318 319 320 322 323 320 317 319 320 320 320 320 319 319 320 323 325 327 328 329 330 331 332 332 333 332 331 332 332 334 333 333 334 336 335 334 333 335 339 340 341 344 340 334 333 336 340 343 342 343 344 342 345 349 347 345 343 340 338 339 338 338 338 336 335 335
325 326 327 326 327 327 326 326 327 327 327 326 323 321 320 321 322 321 319 318 319 319 320 322 321 317 317 318 318 317 318 319 318 318 320 323 326 328 330 330 331 332 332 333 333 332 330 330 331 333 332 335 336 334 333 333 335 339 340 341 343 340 335 336 339 342 342 342 343 344 342 342 345 347 348 346 342 339 339 338 337 337 336 335 336
325 326 327 327 328 329 328 326 326 326 327 326 325 323 321 320 320 320 319 320 320 320 319 321 322 319 317 318 318 315 317 320 319 317 318 321 324 327 329 329 331 333 332 332 334 335 333 330 330 331 332 334 337 335 333 335 337 339 339 340 339 338 335 338 342 343 342 341 343 344 341 339 341 345 348 347 344 343 341 340 339 337 336 336 336
325 325 324 324 325 326 326 325 325 326 326 326 326 325 323 321 319 318 319 320 321 322 321 320 321 321 319 319 318 315 316 320 319 317 317 320 322 325 327 328 329 332 334 333 333 334 335 333 331 330 330 332 334 333 332 335 337 338 339 340 339 337 336 337 340 342 342 341 342 343 340 338 341 346 347 347 346 344 342 342 341 339 337 338 338
325 326 324 322 322 324 323 322 323 324 324 324 325 325 323 322 319 317 318 320 322 323 322 319 319 320 320 321 320 317 317 319 320 318 317 320 321 323 325 327 326 328 333 335 334 333 334 335 333 331 330 331 333 333 332 334 336 336 337 338 337 338 339 338 337 338 340 340 341 343 342 340 343 346 345 345 346 344 341 342 343 341 340 340 339
324 326 323 321 322 324 323 322 322 323 323 324 325 325 323 322 320 319 319 320 323 323 321 318 317 319 319 320 321 320 319 320 320 318 317 319 321 321 323 325 324 326 330 333 334 335 335 335 335 332 330 330 331 332 333 334 335 335 335 336 336 336 337 338 338 338 339 339 340 343 344 342 344 345 344 345 347 345 342 343 345 344 342 341 339
Wind_Speed
15 14 13 13 13 14 15 16 17 16 15 14 13 12 11 11 11 11 12 12 12 11 11 11 11 11 11 11 12 11 11 10 10 11 10 10 10 11 12 12 12 11 11 10 10 10 10 10 9 9 10 13 15 14 13 13 12 12 11 11 10 10 10 9 9 9 9 9 9 9 8 8 7 7 7 7 7 6 6 5 5 4 4 4 4
15 15 13 14 14 15 16 15 15 16 15 14 14 14 13 12 12 11 11 13 12 11 12 12 10 10 12 12 12 12 13 12 11 11 11 11 11 11 12 12 12 12 11 11 11 11 11 11 11 10 10 12 15 15 14 14 13 13 13 12 11 11 10 10 9 9 9 9 9 9 9 9 8 8 8 8 8 7 7 6 6 6 6 6 5
15 14 14 15 16 16 17 16 14 14 14 15 16 15 14 15 14 13 12 13 14 14 14 14 12 11 12 13 13 14 15 14 12 11 10 11 12 12 13 13 12 12 12 12 12 12 12 12 12 12 12 12 14 15 15 14 14 14 14 13 13 12 11 10 10 9 9 9 9 9 9 9 9 9 9 9 9 9 8 8 8 7 7 7 7
16 16 16 17 19 20 20 19 16 14 15 17 17 16 16 18 18 17 16 16 16 16 17 17 15 13 13 13 14 15 16 16 14 12 11 12 13 14 14 14 14 13 13 13 13 13 13 13 13 14 13 13 13 15 15 15 15 15 14 14 14 14 12 12 11 10 10 9 9 10 10 10 10 10 10 10 10 10 10 9 9 9 8 8 8
19 20 21 21 23 24 23 21 18 16 17 17 17 17 17 18 19 18 17 18 19 19 19 20 18 16 15 13 14 16 17 17 17 16 14 13 14 15 15 15 15 14 14 14 14 14 14 15 15 15 15 15 15 15 15 16 16 16 15 15 15 14 13 13 12 11 11 10 10 10 10 10 10 11 11 11 11 11 11 11 11 10 10 9 8
22 24 25 26 27 28 28 25 20 19 19 19 19 20 21 20 19 19 19 19 20 20 20 21 22 21 17 15 14 15 17 17 17 18 17 15 15 16 16 16 15 15 15 16 16 16 16 16 17 16 16 17 17 17 17 17 17 17 16 16 16 15 15 14 13 13 12 12 11 11 11 11 11 12 12 12 12 12 12 12 12 12 11 11 10
27 28 29 30 30 30 30 28 24 23 23 23 24 26 26 25 23 23 23 21 21 23 23 23 24 23 21 19 16 15 15 16 17 19 19 18 17 17 17 17 17 16 17 17 17 18 18 18 19 19 18 18 18 19 19 18 18 18 18 18 17 17 16 15 15 14 14 13 13 13 12 13 13 12 13 13 13 13 13 13 12 12 12 12 11
26 28 31 31 30 31 30 27 24 24 25 27 31 32 32 30 29 29 28 25 24 25 26 27 26 25 24 22 21 18 17 16 17 18 18 17 17 17 18 19 19 19 19 18 18 18 19 20 21 21 20 20 19 20 20 21 20 20 20 19 19 19 18 17 16 16 15 15 14 14 13 13 13 13 13 13 13 13 13 13 12 12 12 12 12
22 23 26 26 26 28 28 27 25 25 27 29 33 36 33 30 29 28 28 29 29 29 29 30 29 28 26 24 23 22 20 18 17 18 18 18 19 18 18 19 20 21 21 20 19 18 19 20 21 21 22 22 21 21 21 22 22 22 22 21 21 20 19 18 18 17 17 16 15 15 14 14 13 13 14 14 14 13 13 12 12 12 12 13 13
19 21 24 25 25 27 29 29 29 29 30 31 34 36 33 29 28 27 29 31 32 33 34 33 31 30 29 26 24 23 23 22 19 18 19 21 21 19 18 18 20 21 22 21 19 18 19 20 20 21 23 23 23 22 22 22 23 24 23 23 22 21 20 20 19 19 18 17 16 16 15 14 14 14 14 14 14 14 13 12 12 12 12 13 13
13 17 19 22 24 26 28 28 28 29 31 31 31 32 31 31 32 31 32 34 36 36 36 35 32 30 30 29 28 27 27 26 23 21 21 21 21 20 19 18 19 21 22 22 20 20 20 21 21 21 22 23 23 22 22 23 24 25 25 24 23 22 22 21 21 20 19 18 18 17 16 16 15 15 15 15 15 15 14 14 13 13 13 13 14
14 13 14 16 19 21 21 22 23 24 25 26 27 30 31 34 35 34 33 35 38 37 36 36 34 32 31 31 31 31 29 28 27 26 23 22 21 20 20 19 18 19 20 21 21 21 20 22 22 21 20 22 22 22 22 23 24 25 25 25 25 24 23 23 22 22 21 20 19 18 17 17 17 16 16 16 15 15 15 15 15 14 14 14 14
19 17 16 16 18 20 20 20 21 22 23 25 28 30 30 32 33 33 32 34 36 34 32 32 31 30 31 30 31 34 32 29 29 29 26 25 23 22 22 22 19 18 19 20 21 22 21 22 23 22 21 21 22 22 22 23 25 25 26 26 26 25 25 24 24 23 22 22 21 20 20 19 19 18 17 17 16 16 16 16 16 16 16 16 16
21 20 20 19 20 21 22 22 23 25 26 26 27 27 26 29 30 29 30 31 31 28 25 25 25 27 28 26 25 29 31 30 30 29 27 27 25 24 26 26 23 20 19 19 20 22 22 22 22 22 22 22 22 22 22 23 25 26 27 27 27 26 26 26 26 25 24 24 23 22 22 21 21 20 19 18 17 17 16 16 16 16 16 17 17
21 20 20 20 20 21 22 22 23 24 24 25 24 24 24 27 28 25 24 24 23 24 23 24 25 24 22 20 20 21 25 28 31 30 28 27 27 26 26 26 26 24 21 19 19 20 21 21 22 23 24 24 23 22 22 23 24 25 26 26 27 27 27 27 27 26 25 25 24 23 22 21 21 21 21 20 19 18 18 18 17 17 17 17 17
20 21 21 21 21 22 22 22 23 22 21 23 23 23 24 26 25 22 21 20 21 23 24 25 26 23 19 19 17 16 21 24 25 27 26 25 27 28 27 26 26 26 25 24 21 20 21 22 23 25 26 25 25 24 24 24 24 24 25 26 27 27 28 28 28 27 26 25 25 23 22 21 20 20 20 20 20 20 20 19 19 19 18 18 18
18 19 20 20 21 22 21 21 22 22 21 22 23 23 23 24 23 23 22 22 22 24 24 24 24 24 23 21 17 15 21 23 19 20 22 22 24 26 26 25 25 26 28 29 26 23 22 22 24 27 27 26 25 25 26 26 25 26 26 26 26 27 28 29 29 28 27 26 26 24 23 22 22 21 21 21 21 21 21 21 21 21 20 20 20
16 16 16 17 18 19 19 19 20 21 20 21 22 22 22 23 23 23 22 21 23 25 27 26 25 25 26 27 24 20 20 19 18 19 19 18 21 21 22 23 24 25 29 32 31 28 25 24 25 26 27 27 26 26 27 27 28 27 27 27 27 27 27 28 30 30 29 28 28 27 26 25 24 23 23 22 23 23 23 22 22 22 22 22 21
14 14 15 16 16 17 18 18 18 19 19 20 22 22 22 22 20 19 18 18 20 23 25 25 25 26 27 29 30 28 25 22 21 21 17 17 21 21 20 21 22 23 26 31 32 29 28 26 26 27 27 28 28 27 27 28 28 28 28 28 28 27 27 27 29 30 31 31 30 30 29 28 27 26 25 25 25 25 25 25 24 24 24 23 22
12 12 13 14 15 16 16 17 17 17 19 19 20 20 19 19 19 19 19 19 20 21 21 22 24 27 28 29 31 31 30 29 29 29 26 25 27 26 22 21 23 23 23 26 28 28 28 26 27 27 26 26 28 28 28 28 28 28 29 29 29 29 29 28 28 29 31 32 33 32 32 31 30 28 27 27 26 26 27 27 27 26 26 25 24
10 11 11 13 14 14 15 17 17 16 17 18 19 19 17 16 18 20 20 20 20 20 20 21 23 25 27 29 32 33 32 30 31 33 32 31 31 29 25 24 27 28 27 25 24 25 26 26 28 29 26 25 26 28 28 28 27 27 29 30 29 29 29 30 29 29 30 31 33 33 33 33 32 30 29 28 27 27 28 28 28 27 27 26 26
10 10 11 12 13 15 15 17 18 16 16 16 18 20 19 17 18 19 19 20 19 19 20 21 22 24 26 28 30 33 32 30 30 32 31 32 32 31 30 27 27 32 35 32 28 26 24 23 25 27 27 26 25 26 27 28 28 28 29 30 30 30 30 30 30 30 30 30 31 32 32 32 32 31 30 29 28 28 28 28 28 28 28 27 27
10 10 11 11 13 14 15 16 17 17 16 15 18 21 21 19 19 20 20 20 20 20 21 22 23 23 25 26 29 31 30 29 32 33 31 32 32 33 34 30 26 31 38 39 34 30 26 24 24 24 24 25 25 25 26 27 28 28 29 28 28 29 30 31 31 31 31 31 31 31 31 31 31 31 30 30 29 29 29 28 28 28 28 27 27
12 11 12 13 13 13 14 15 16 17 17 17 19 20 20 20 21 22 22 22 23 22 23 25 25 25 25 26 28 30 32 33 35 34 33 33 33 35 37 32 27 28 34 37 35 33 30 28 27 25 24 24 24 24 25 26 27 27 27 25 25 26 27 28 29 29 30 31 32 31 31 31 30 30 30 30 30 29 29 29 28 28 28 28 27
14 13 13 14 14 13 14 14 14 15 16 17 18 19 19 20 20 21 22 23 24 24 25 26 26 26 27 28 27 28 31 33 34 32 31 32 34 37 38 34 30 28 28 30 30 31 32 32 30 27 26 26 24 24 25 26 26 27 27 25 25 25 25 25 26 27 27 29 31 32 32 31 31 30 30 30 30 30 30 30 29 29 29 28 28
13 14 13 13 12 12 13 14 15 16 16 17 18 18 19 19 19 20 20 22 23 24 25 26 27 27 27 29 30 29 30 30 30 31 31 30 32 36 38 37 36 34 30 28 28 28 29 31 30 28 28 30 28 27 28 29 28 28 29 28 26 25 25 26 26 26 26 28 30 31 32 31 30 30 29 30 30 30 31 31 30 30 30 30 30
12 12 12 11 11 12 13 14 16 17 17 17 16 16 17 17 17 17 18 19 20 22 24 26 28 29 29 31 30 30 32 32 32 34 33 32 32 34 36 38 39 38 35 31 30 29 29 27 26 25 27 30 30 31 33 34 33 31 30 29 27 26 25 26 27 27 26 27 29 30 30 30 30 30 29 29 30 30 30 30 31 31 31 32 32
12 11 11 10 10 11 12 13 15 16 17 17 16 14 14 15 15 14 15 16 17 19 22 24 27 29 31 31 31 32 35 35 36 37 36 34 34 33 36 39 40 39 37 32 31 31 32 30 27 26 26 26 28 30 31 34 34 32 31 28 28 27 27 27 27 27 26 26 27 28 29 29 29 29 29 29 29 29 29 30 30 31 32 32 33
10 11 10 10 10 11 12 13 14 15 17 17 15 14 14 14 14 14 16 16 18 19 21 22 24 26 29 30 33 36 37 37 38 39 38 37 36 36 38 40 40 40 38 35 33 32 33 35 32 29 26 25 26 27 25 26 29 30 30 28 28 28 28 28 26 25 26 25 25 27 28 28 29 29 29 29 29 29 29 30 30 31 31 31 31
10 10 10 10 10 11 12 13 14 16 17 17 16 15 14 15 14 16 17 17 19 22 23 24 24 25 27 29 32 34 35 37 39 39 40 41 40 39 39 39 40 43 43 40 38 36 34 34 34 31 26 23 22 22 21 22 23 26 26 26 28 28 28 28 26 25 26 25 25 26 28 28 29 30 30 31 31 30 30 29 29 29 29 29 30
10 10 10 10 11 11 13 14 15 16 17 16 16 15 15 16 16 16 17 18 20 22 24 25 26 26 28 30 31 32 33 35 36 37 39 41 40 39 39 40 40 44 46 43 41 41 35 31 31 29 24 20 19 19 20 20 19 20 22 24 26 27 26 26 25 25 26 26 26 27 29 30 31 32 32 32 31 30 29 28 28 28 28 28 28
11 11 12 11 12 12 13 14 15 15 16 16 16 15 15 16 16 17 20 21 22 24 26 27 28 29 29 30 32 33 33 34 34 35 37 38 38 38 39 39 37 40 43 41 41 44 42 37 35 31 23 18 18 19 21 23 21 19 19 22 24 26 26 24 24 25 26 25 26 28 29 30 31 31 30 30 29 29 28 28 28 28 27 27 26
12 12 12 12 12 13 14 14 14 16 17 16 16 16 15 16 17 19 21 22 23 26 29 29 30 32 31 31 32 33 34 35 35 35 35 36 37 36 37 38 37 38 40 39 39 43 44 42 42 38 29 20 18 19 21 24 25 22 20 21 23 24 24 23 24 25 24 24 26 27 27 28 27 27 27 28 28 28 28 28 27 26 25 25 25
14 13 13 13 13 14 15 15 16 17 19 18 16 16 16 17 18 18 20 24 26 28 30 31 32 33 33 33 33 32 33 34 36 36 34 34 35 35 35 35 35 36 38 37 37 39 38 38 38 39 36 29 26 26 24 23 24 23 21 22 23 23 22 22 23 23 21 22 24 25 26 26 26 26 26 27 27 27 26 25 25 25 25 25 25
15 15 14 14 15 15 16 17 17 18 19 18 17 16 17 19 19 19 21 25 27 28 30 33 34 33 33 34 32 31 32 33 35 35 34 33 34 34 34 32 33 35 34 33 34 33 32 32 34 35 35 33 31 32 29 25 26 26 24 24 24 23 23 22 23 22 21 21 23 25 25 26 26 25 25 25 25 25 24 25 25 25 25 25 24
16 16 15 15 16 16 17 17 18 18 17 18 18 17 17 19 20 22 24 26 28 28 30 34 33 31 32 34 31 30 31 33 33 34 35 35 34 34 34 33 35 36 33 31 34 33 31 33 33 34 35 32 29 30 26 23 26 27 25 25 26 26 25 23 23 24 23 21 21 23 24 24 24 23 22 22 22 22 23 23 23 23 24 24 24
17 17 17 17 17 17 17 17 18 18 17 18 20 19 19 20 22 23 25 26 27 26 30 35 32 28 29 32 32 31 30 31 32 33 35 37 35 34 33 32 34 37 37 36 37 36 35 36 35 33 34 31 28 29 28 25 27 27 26 27 26 27 27 25 24 24 24 22 21 22 24 23 23 21 20 20 19 20 20 20 21 22 22 24 24
17 17 18 19 19 17 17 18 18 18 19 20 21 21 21 22 22 23 25 26 24 25 30 35 30 26 27 29 31 31 29 29 31 32 34 35 34 35 35 33 33 36 39 38 37 36 35 36 36 34 34 33 31 33 32 30 30 29 28 28 27 27 29 26 24 24 24 24 22 22 24 25 23 21 20 19 20 20 20 19 19 20 21 22 24
17 17 17 19 20 18 17 17 18 19 20 21 22 22 22 21 21 22 25 25 23 25 31 31 27 25 27 28 29 30 28 28 30 30 32 32 32 34 35 33 32 35 39 37 36 37 36 35 35 34 33 32 33 34 32 31 31 30 29 30 30 30 30 27 26 24 23 26 25 24 26 26 25 23 21 21 22 22 21 20 19 20 20 21 23
18 18 18 18 19 19 18 17 18 19 19 18 20 21 21 21 20 22 24 23 22 26 29 26 24 27 30 30 30 29 27 27 27 26 28 28 27 30 33 34 35 37 39 38 36 36 36 35 35 34 33 33 32 32 30 28 30 31 30 31 31 30 28 28 28 25 23 25 27 27 28 27 25 24 23 23 24 24 23 22 21 21 21 21 23
18 18 18 18 18 18 18 17 16 17 16 16 18 20 20 20 20 22 23 21 21 24 27 25 26 32 33 31 30 29 28 28 24 21 24 25 26 29 33 34 36 38 39 38 37 37 37 36 34 32 32 33 33 31 29 29 32 32 30 31 31 28 26 26 27 25 24 25 26 27 29 28 27 26 25 25 25 25 25 24 23 22 22 23 23
17 18 17 17 16 16 17 16 15 15 14 16 18 20 19 19 19 21 22 21 20 20 23 26 30 34 34 32 31 31 31 30 25 19 20 23 27 31 33 33 35 38 39 38 38 39 38 36 35 32 32 34 34 32 32 33 33 31 30 31 30 28 27 28 28 26 25 25 27 29 29 28 27 27 26 26 26 25 25 25 25 23 23 23 24
16 16 16 15 15 15 15 14 13 13 14 16 19 19 19 19 19 20 21 20 18 18 20 24 28 32 34 33 32 33 33 33 29 23 20 21 23 27 31 32 33 35 37 39 39 38 37 37 35 35 36 37 35 35 34 33 33 32 32 32 31 29 28 29 30 28 27 25 26 28 29 29 27 25 25 27 28 27 27 27 27 25 24 24 24
15 14 14 14 14 14 13 12 12 12 13 16 19 19 19 19 19 20 20 19 17 18 20 22 24 29 33 34 33 34 35 34 31 28 26 22 20 22 27 32 33 32 35 39 40 38 37 36 35 35 37 36 35 36 34 32 31 31 31 30 30 31 29 28 31 32 28 27 27 29 29 27 24 24 25 27 27 28 29 30 29 27 26 25 24
15 14 14 14 14 13 13 12 13 12 12 15 18 18 18 18 18 19 20 18 17 18 21 21 22 26 31 33 33 34 36 36 34 33 33 28 24 22 23 29 34 36 36 38 41 41 38 37 36 38 39 36 36 36 35 33 31 29 30 30 28 30 31 29 33 34 29 26 28 29 29 25 22 24 27 27 27 27 29 31 30 28 28 26 25
15 15 14 14 14 13 12 12 13 13 13 15 16 17 17 18 18 20 20 18 16 17 20 20 21 24 27 30 33 35 37 37 37 37 37 34 31 29 26 25 30 37 39 40 43 44 43 41 39 40 41 38 35 35 35 35 33 29 29 28 25 27 30 29 32 33 30 28 28 27 27 25 21 21 22 23 25 28 29 31 30 29 28 26 25
14 14 15 15 14 14 13 13 14 13 13 15 17 17 18 18 18 20 21 19 16 16 19 20 20 21 24 28 33 38 38 36 37 39 39 37 34 34 34 30 27 33 39 42 43 44 47 48 44 43 43 38 33 33 35 34 33 32 31 27 24 27 29 26 28 30 30 30 30 28 28 26 21 19 18 19 23 26 28 30 30 29 27 25 25
14 14 15 14 14 15 14 14 15 14 13 16 18 18 19 19 19 20 20 19 17 16 18 19 20 20 21 25 31 36 36 34 35 39 40 38 35 35 38 38 30 28 35 41 44 43 45 47 47 47 45 38 31 31 33 33 31 30 29 27 26 29 29 26 27 30 31 32 31 29 28 26 22 20 18 16 19 23 24 25 28 28 25 24 24
15 14 14 15 15 15 16 17 17 16 14 16 19 20 20 19 19 19 19 18 17 17 18 19 19 18 19 21 26 32 34 33 34 38 39 39 38 35 37 39 35 28 30 36 40 43 45 45 46 46 45 41 37 35 35 34 32 28 25 26 27 27 28 29 29 30 30 30 30 30 29 27 23 21 19 16 17 22 22 21 24 26 23 22 23
15 13 14 17 18 17 17 19 19 19 19 17 17 19 19 19 19 19 18 19 19 18 19 21 20 18 19 21 22 26 30 32 34 36 38 39 39 37 37 38 37 31 27 29 34 40 44 43 43 43 44 43 43 42 39 36 35 34 30 29 29 27 26 27 28 28 28 29 29 29 30 27 23 21 20 17 17 22 23 19 21 23 20 20 22
14 14 15 18 19 19 20 22 21 22 21 17 15 17 19 18 18 19 19 19 20 20 21 22 21 20 21 22 21 21 26 30 33 36 39 40 39 39 38 37 35 32 26 25 29 35 39 39 40 40 41 43 44 45 43 39 38 38 35 32 31 30 29 28 26 27 30 31 30 29 29 26 22 21 21 18 16 19 21 18 19 21 19 18 20
Wind_Direction
274 275 278 281 282 278 274 270 267 266 265 271 273 271 276 279 276 276 281 285 286 287 282 278 281 282 280 275 272 272 270 267 265 262 254 243 244 247 240 237 242 243 244 249 249 246 239 232 226 226 232 221 212 212 215 218 221 223 223 221 219 221 225 227 227 226 223 222 223 226 230 233 240 245 248 249 250 255 261 266 266 264 261 260 261
278 277 281 284 283 280 277 271 269 270 269 274 278 278 278 275 275 275 280 286 286 283 281 280 276 273 276 276 273 270 270 269 265 260 256 247 241 245 244 238 241 243 242 245 247 247 243 235 229 225 228 224 216 214 215 218 222 223 224 223 221 223 228 231 232 232 232 232 233 236 239 242 245 250 253 254 255 257 260 265 265 262 258 255 255
276 281 285 286 285 285 285 278 269 271 277 276 275 281 284 282 283 284 284 286 286 283 282 282 278 271 270 275 274 271 272 272 267 260 255 251 243 242 246 244 242 242 241 243 244 243 242 239 234 228 226 225 222 220 218 219 222 224 224 224 224 225 227 231 233 234 235 237 239 242 244 247 250 252 256 257 259 260 262 264 265 264 262 260 258
280 283 281 282 286 288 287 285 281 283 289 286 281 286 293 295 293 289 287 287 287 286 283 282 281 277 271 271 271 272 274 272 269 260 251 249 246 243 246 249 248 244 241 240 241 240 240 242 240 234 229 226 226 225 224 223 223 224 225 226 227 227 228 231 233 235 237 240 243 245 246 248 251 254 256 259 260 263 265 265 265 264 263 261 259
282 280 280 284 285 285 282 283 290 291 291 292 293 294 293 294 294 292 291 290 288 284 283 282 279 277 272 270 268 269 272 270 268 264 255 250 249 247 244 247 250 249 245 240 239 239 240 242 242 240 236 232 229 228 228 226 224 224 225 228 229 229 230 233 237 239 241 244 246 248 251 252 253 255 256 257 259 261 263 265 266 264 262 261 258
277 279 283 283 280 279 279 282 289 288 287 289 293 299 296 292 294 300 298 295 294 289 285 282 280 277 272 268 268 269 268 265 268 268 262 253 249 249 246 244 246 249 249 245 242 240 241 242 242 242 239 237 233 231 230 229 227 225 225 227 230 231 233 236 239 241 244 246 248 251 254 256 256 257 258 258 258 259 260 262 264 263 262 260 259
277 281 283 282 279 278 278 281 282 282 288 291 292 298 299 295 295 302 302 296 295 296 294 289 284 280 274 268 266 267 265 262 263 266 266 259 252 250 248 246 245 246 247 248 247 244 242 242 243 243 242 240 238 235 233 231 230 228 228 228 229 231 234 238 240 242 244 245 248 251 253 255 257 259 260 260 259 258 259 260 261 263 262 261 261
283 284 283 282 281 283 283 283 283 283 288 291 292 295 297 298 297 298 299 295 291 294 296 296 291 284 278 271 264 264 265 263 260 261 263 259 254 251 250 250 248 247 246 245 246 246 244 241 241 242 242 241 240 238 236 235 234 232 231 231 230 231 233 237 240 242 244 245 247 248 250 253 257 260 261 261 259 259 259 260 260 261 263 264 264
286 286 285 282 280 284 284 282 281 281 283 287 291 295 296 298 300 298 297 295 291 288 289 293 293 287 281 273 266 263 263 263 261 259 258 256 254 250 248 251 252 252 249 246 244 246 247 243 240 242 243 243 242 240 237 236 237 236 235 234 233 233 235 237 239 242 243 244 246 247 249 253 256 261 263 263 261 260 259 258 258 258 260 262 263
286 280 280 281 279 280 281 280 277 276 281 283 285 291 295 296 299 299 297 295 292 287 285 288 288 286 284 277 267 258 256 259 260 260 259 257 257 253 249 249 252 254 253 249 243 242 245 245 242 242 242 243 242 240 238 236 236 237 237 237 237 236 237 238 238 240 241 242 244 246 248 251 255 259 262 265 265 264 262 260 258 257 257 258 260
291 279 276 278 277 277 279 280 276 274 279 280 278 285 292 291 290 290 290 289 288 285 283 283 280 278 280 277 267 257 253 254 254 258 261 258 255 253 251 248 249 253 254 252 247 241 242 245 244 242 242 243 243 243 241 238 235 236 236 237 237 237 237 238 239 239 239 241 243 244 247 250 254 257 259 262 263 264 264 264 263 261 260 259 260
301 293 286 284 283 282 282 283 280 276 278 279 280 285 287 286 283 280 278 277 278 279 277 277 277 275 275 273 268 260 254 251 250 254 258 257 253 250 248 246 246 249 250 251 249 244 241 243 245 243 242 243 245 246 245 243 240 237 236 236 236 237 237 238 239 240 240 241 244 246 249 252 254 255 256 258 260 261 262 263 264 264 264 263 263
305 301 296 292 289 287 286 285 285 283 280 281 284 287 286 282 277 273 270 267 271 273 272 272 272 270 271 272 268 261 254 252 252 251 250 252 252 248 247 245 241 241 244 247 249 247 243 242 245 244 241 242 245 248 247 247 244 241 238 237 236 236 237 238 239 241 243 244 247 249 252 254 256 256 255 255 256 258 260 260 261 261 262 263 263
306 306 303 299 293 288 286 286 286 286 287 286 287 288 287 281 274 270 268 267 270 273 271 267 265 267 270 270 266 259 255 253 252 250 247 248 248 246 248 249 245 240 240 245 248 249 246 243 244 244 243 242 243 247 248 247 246 243 240 239 239 237 237 239 240 242 245 247 249 252 254 255 256 256 256 255 254 255 256 257 258 259 259 260 260
303 303 303 302 298 293 292 291 289 288 288 288 286 285 288 284 277 273 270 267 268 269 265 261 264 269 269 262 258 257 257 255 253 249 244 244 246 244 246 248 248 244 240 239 244 247 247 243 241 242 244 243 241 242 245 248 248 246 243 241 241 240 240 241 242 243 245 248 250 250 251 252 253 255 254 253 252 252 253 254 255 256 257 258 259
301 300 298 298 297 295 295 293 290 286 285 286 284 281 284 283 277 274 269 265 267 268 266 267 265 261 256 257 255 252 255 256 254 249 244 244 245 242 242 244 247 248 245 241 240 242 243 243 242 244 247 247 245 243 242 245 247 248 246 244 242 243 243 243 243 244 244 246 247 246 246 247 250 252 253 252 252 252 252 253 253 253 255 256 258
303 301 298 298 297 294 295 296 292 289 287 288 284 280 281 278 273 271 268 268 269 268 265 264 262 256 253 255 250 241 249 253 253 252 247 244 242 240 240 242 242 246 249 248 246 242 240 240 244 249 251 251 249 247 244 243 244 246 246 245 244 243 244 244 243 243 243 243 242 244 244 246 249 251 253 254 254 253 253 253 253 253 254 254 255
306 304 301 300 298 295 297 297 293 292 293 291 283 277 276 274 273 273 272 272 272 269 263 257 257 258 256 253 251 248 250 251 250 251 247 237 237 239 240 242 242 244 250 254 252 248 242 238 241 249 253 253 250 249 247 245 244 244 244 245 245 244 244 244 243 242 242 242 241 243 245 249 252 254 255 256 257 257 256 255 255 254 255 255 255
307 306 304 302 301 299 299 296 292 290 288 286 280 273 270 273 276 277 277 276 273 270 267 263 259 257 256 253 253 252 250 249 249 252 252 244 242 242 242 244 242 241 248 254 253 248 245 240 239 245 250 253 252 249 247 246 245 244 243 245 246 246 246 245 244 243 242 242 243 244 247 251 253 254 255 256 258 259 259 259 259 258 258 258 258
310 310 308 307 305 304 304 301 297 287 279 280 278 272 271 275 279 280 278 275 272 270 270 269 263 258 256 255 255 253 251 251 252 255 259 260 257 251 246 245 243 241 244 249 248 245 244 240 239 242 245 249 252 250 247 245 245 245 244 245 245 245 247 248 246 244 243 243 244 246 248 250 252 253 254 255 257 259 261 262 261 261 261 260 260
318 319 317 315 311 308 308 305 303 292 283 284 282 276 276 280 283 285 284 279 276 274 273 272 267 261 257 256 258 257 253 253 254 255 256 259 261 258 253 250 250 248 242 239 240 240 237 235 239 243 242 243 247 249 247 244 242 243 245 246 245 245 246 247 247 245 244 243 243 245 247 249 251 251 252 253 256 258 260 262 262 262 261 261 262
324 322 320 320 316 312 308 305 306 300 289 286 284 283 284 287 287 285 283 282 281 278 275 273 270 266 261 260 260 255 251 251 253 256 256 256 258 258 257 254 253 252 247 239 237 236 231 229 236 241 241 242 243 244 245 244 242 242 244 246 247 246 246 246 247 245 244 243 243 244 246 247 248 249 250 252 254 256 258 260 261 262 261 262 262
324 324 322 322 320 318 315 310 309 305 297 289 288 289 291 293 291 287 285 285 285 282 279 275 271 268 265 263 260 253 247 249 255 260 262 260 260 260 259 256 251 252 252 248 244 243 240 234 231 233 236 240 241 241 242 244 244 242 243 247 248 249 249 248 248 246 245 244 243 244 245 246 247 247 249 251 252 254 255 256 258 259 260 261 261
320 324 325 325 324 323 322 318 315 312 308 302 298 295 294 293 291 290 289 287 286 284 279 276 272 269 267 265 264 259 252 252 259 263 263 263 263 263 264 262 253 251 256 256 248 243 243 238 232 231 232 234 238 240 241 242 243 243 244 248 248 248 250 250 250 248 246 244 243 244 244 245 246 247 249 250 252 253 253 254 254 256 257 259 260
316 318 320 322 323 324 325 324 320 317 314 310 308 304 300 297 292 290 289 286 284 281 276 273 272 271 270 267 266 264 259 257 260 261 261 264 264 264 265 262 256 254 258 258 249 242 243 240 235 235 232 231 233 236 239 239 240 245 248 250 248 247 249 251 253 252 249 246 244 243 243 244 245 247 248 250 251 252 252 252 253 254 256 258 259
315 314 315 318 323 327 329 328 325 324 321 317 313 310 306 301 295 291 290 287 283 280 275 270 270 271 271 269 266 263 262 261 261 262 263 265 264 264 265 262 261 261 258 254 250 246 244 240 238 237 235 235 233 233 238 240 241 246 250 250 250 251 253 256 256 254 252 249 246 244 243 244 245 246 248 248 249 251 252 253 253 254 255 257 259
315 312 312 313 318 322 326 328 329 330 329 324 319 315 311 307 301 297 298 295 288 285 281 275 273 272 272 271 267 263 264 263 262 263 263 264 266 267 266 264 264 264 259 254 250 245 243 242 240 237 236 238 239 237 240 245 247 249 250 250 251 252 255 258 258 255 253 250 246 244 243 244 245 246 246 247 248 250 252 253 254 254 256 258 259
317 313 310 308 309 313 320 327 331 335 335 332 326 320 317 314 310 308 309 307 299 294 290 284 281 277 273 272 269 266 266 265 265 265 264 265 268 268 267 265 262 260 258 256 253 249 248 248 243 239 236 236 241 245 247 249 251 251 249 248 250 251 251 254 256 255 253 250 245 242 242 243 244 244 245 246 248 251 253 254 255 256 257 259 260
323 320 314 310 308 309 317 324 329 335 337 334 330 325 323 320 316 315 317 315 310 308 304 295 287 282 277 274 272 270 267 265 266 267 266 266 267 266 265 265 259 253 253 256 257 253 251 251 248 243 238 236 243 251 252 250 249 249 248 246 248 250 251 254 254 251 250 248 245 243 243 243 243 244 246 248 251 253 254 254 255 257 258 260 261
328 327 320 314 311 311 316 319 323 331 332 331 328 326 324 322 321 320 320 320 316 316 315 307 297 289 284 281 277 274 271 267 265 265 266 267 266 264 264 264 258 251 249 252 256 255 252 252 250 245 239 233 236 246 251 251 249 248 248 246 248 249 251 255 254 248 246 245 245 245 245 245 247 249 251 252 253 254 254 253 254 256 258 260 261
330 331 326 319 315 312 313 314 319 327 329 327 324 321 321 320 323 324 324 326 324 322 319 314 306 297 291 287 282 277 275 272 267 265 266 265 265 263 262 262 258 251 248 248 252 254 252 249 247 248 246 235 228 233 243 249 249 249 248 244 244 246 247 251 251 248 246 245 246 248 249 250 252 252 251 250 251 251 251 252 254 256 258 259 261
328 328 327 322 316 310 307 308 314 321 323 322 319 317 317 314 317 324 325 326 326 325 323 318 311 303 296 289 284 280 277 275 270 266 264 263 263 259 258 259 254 250 248 246 248 253 253 248 247 250 250 244 239 237 241 249 250 250 249 242 239 240 241 243 246 246 243 243 246 249 250 250 249 248 247 246 247 248 250 253 255 257 258 258 259
325 325 323 321 316 310 304 301 305 310 314 318 316 313 311 307 310 317 318 318 321 323 323 320 315 310 301 292 286 281 277 275 273 269 264 261 260 257 255 256 253 248 249 247 246 251 255 252 250 248 245 244 245 241 244 251 251 250 249 243 238 237 237 239 241 242 239 240 245 247 246 244 242 241 242 243 246 248 251 253 254 256 257 258 259
320 319 318 318 316 312 307 302 299 301 306 312 311 307 305 303 307 312 314 316 321 322 321 320 317 314 307 298 290 283 278 274 271 271 265 258 257 257 254 253 250 246 245 245 244 249 254 252 249 248 246 244 245 246 247 248 250 251 246 241 238 234 232 234 237 236 232 233 241 244 242 240 239 239 241 244 247 249 251 253 254 255 257 258 260
315 314 313 314 314 312 309 305 301 300 303 308 309 307 307 307 310 312 312 317 322 322 320 321 320 316 311 305 295 286 280 275 272 269 265 259 256 256 252 249 247 243 240 239 239 242 247 246 245 247 246 244 247 250 249 247 250 252 247 242 240 233 227 226 228 229 225 224 233 240 241 240 239 239 241 243 245 248 250 252 253 255 256 257 258
310 309 308 308 309 310 307 305 304 302 301 302 305 308 310 311 314 315 315 318 323 322 322 325 325 320 314 309 301 290 281 277 274 267 263 263 259 256 253 249 247 244 237 235 239 240 241 242 244 246 246 244 246 247 245 244 247 248 246 245 243 235 227 223 223 224 223 222 229 239 242 241 238 237 237 240 243 247 250 252 253 255 256 257 258
310 307 304 303 304 305 304 304 305 304 301 300 303 307 309 312 316 319 317 319 323 324 325 329 328 321 316 311 305 298 286 278 275 266 262 263 260 256 254 250 247 246 241 240 244 243 242 244 247 247 246 244 243 242 240 240 244 245 244 244 243 238 231 226 224 225 225 224 226 236 243 242 238 235 235 238 242 245 248 252 255 257 259 259 259
308 304 300 298 298 297 297 300 303 303 302 301 302 304 307 310 317 321 320 321 324 326 329 334 333 323 319 316 309 304 294 283 279 271 263 263 263 260 256 249 245 246 243 241 244 244 243 247 248 247 248 245 241 240 241 242 243 245 245 245 244 238 233 230 230 229 228 227 226 232 241 241 237 235 235 238 240 243 248 252 257 261 263 264 262
304 302 299 296 295 294 291 294 299 301 300 300 303 306 307 309 316 322 324 325 328 332 336 340 339 331 328 328 322 314 304 297 292 280 265 262 264 262 259 252 245 244 242 240 243 244 243 245 246 245 244 242 238 240 242 243 244 244 244 243 241 235 230 229 232 231 228 228 229 233 240 242 239 236 236 237 240 243 248 253 261 267 269 269 266
304 302 300 296 293 291 288 289 295 299 297 294 299 306 306 308 315 323 328 331 333 339 342 342 342 341 340 339 335 328 322 318 310 287 267 262 264 266 265 259 251 246 243 240 242 243 243 244 243 243 242 238 234 237 239 240 242 242 239 238 240 237 232 231 233 232 228 228 229 232 237 239 239 238 237 238 241 244 247 253 263 270 273 274 270
303 302 301 298 294 291 290 290 292 296 293 289 298 306 304 305 313 322 329 335 338 342 343 342 344 348 347 344 342 341 343 341 328 296 272 265 263 265 268 265 256 248 243 242 242 243 242 241 240 240 240 236 232 231 231 231 236 240 238 237 238 236 234 234 233 230 229 230 230 231 231 232 235 239 240 240 242 244 246 254 264 272 277 277 273
302 302 303 302 298 293 294 294 294 294 291 292 303 308 303 303 312 320 329 337 341 343 344 344 347 351 351 349 346 346 347 346 338 317 291 277 267 261 261 263 260 251 245 243 243 241 238 237 237 236 236 236 233 230 228 230 235 239 238 237 236 236 238 239 236 231 230 231 231 230 230 231 233 236 238 240 243 244 248 256 264 272 279 279 274
302 304 306 305 302 297 297 299 299 296 293 299 308 309 303 304 313 321 328 336 340 341 345 348 351 355 358 356 353 351 350 346 341 333 317 299 284 270 258 255 258 256 249 243 239 238 238 237 238 237 236 237 235 231 230 232 235 239 240 239 237 237 238 237 237 235 230 228 230 232 233 233 231 233 236 240 245 248 252 259 266 273 279 280 274
304 306 305 305 303 301 301 301 300 300 298 304 310 307 303 307 315 322 327 332 338 342 347 352 355 359 1 0 359 0 0 356 349 340 331 320 306 289 268 256 253 252 249 244 239 238 238 238 238 238 237 236 234 232 231 231 234 237 240 238 237 237 235 236 241 240 232 229 233 236 236 232 227 230 238 243 248 252 257 261 267 274 280 279 273
304 305 304 306 304 302 303 302 303 303 299 304 312 310 307 311 317 321 324 325 332 344 350 353 357 359 359 360 1 3 4 2 357 349 341 333 326 317 292 268 256 248 245 244 243 241 239 237 238 239 238 235 233 233 233 233 234 234 233 231 230 234 237 242 246 242 233 231 232 231 231 228 224 232 241 247 253 258 262 265 268 273 277 276 269
307 306 305 307 305 301 302 301 302 307 305 307 318 318 314 315 316 316 319 318 322 339 348 352 357 358 357 359 2 1 359 357 357 355 349 340 336 334 322 295 269 254 245 242 242 242 240 237 237 240 238 235 234 236 237 238 235 229 226 225 226 236 243 249 252 244 234 232 231 227 227 226 226 234 240 247 257 263 267 269 269 271 273 270 264
309 308 306 306 303 299 298 297 299 305 308 312 324 327 320 316 314 314 316 314 314 329 341 347 353 356 357 360 0 358 353 351 353 355 352 344 339 339 336 322 290 262 249 243 240 240 240 238 235 236 236 234 235 238 238 237 232 225 224 226 231 240 245 249 251 243 233 231 229 225 226 226 228 234 238 244 258 266 270 270 270 271 270 264 259
313 312 309 308 306 300 297 297 297 298 302 309 321 329 326 319 315 314 314 311 310 318 330 340 346 349 354 357 357 357 353 348 351 355 351 344 342 342 339 332 312 275 251 243 239 237 239 239 236 234 233 232 234 236 235 233 230 226 228 232 234 239 242 242 241 237 233 232 226 219 221 227 229 230 232 237 251 261 266 269 271 271 266 258 255
311 309 310 312 309 301 297 298 296 294 299 305 311 320 326 323 318 316 312 308 307 311 320 333 341 342 345 348 353 359 357 348 348 353 350 345 345 344 338 334 325 296 258 242 238 236 237 239 240 238 235 232 232 234 235 234 231 227 227 230 230 233 237 237 236 235 232 229 221 217 222 229 226 222 226 232 242 253 259 263 268 270 262 253 252
309 307 312 316 316 312 309 306 299 294 296 297 300 311 322 324 321 320 317 313 311 311 317 327 333 334 336 337 343 354 355 346 345 353 354 348 347 347 340 334 329 311 273 244 236 234 235 239 241 241 238 235 233 234 235 233 233 231 229 228 227 227 230 234 236 236 233 227 222 218 221 225 221 219 225 229 236 251 257 258 261 266 262 252 248
302 298 302 309 314 317 317 315 309 299 295 293 296 307 317 321 321 322 323 320 316 315 319 324 326 327 332 335 336 343 348 344 345 355 359 352 349 351 344 335 333 322 288 250 234 231 231 235 238 237 236 233 231 233 232 230 231 232 231 230 230 229 230 234 236 235 233 231 227 219 217 219 216 218 225 225 228 245 252 249 250 258 259 251 245